Location: Mercogliano
(40.9167°N, 14.7333°E)
Time: 03:58:56
(UTC+00:00)

Lacrosse 5 rocket - Pass Details

Date: 18 September 2020
Orbit: 460 x 636 km, 57.0° (Epoch: 25 October)

Event Time Altitude Azimuth Distance (km) Brightness Sun altitude
Rises 18:07:48 0° 278° (W) 2,733 6.9 -12.7°
Reaches altitude 10° 18:10:49 10° 302° (WNW) 1,880 5.3 -13.2°
Maximum altitude 18:13:22 15° 339° (NNW) 1,595 4.1 -13.7°
Drops below altitude 10° 18:16:00 10° 16° (NNE) 1,945 4.1 -14.2°
Sets 18:19:13 0° 39° (NE) 2,883 4.8 -14.8°
